FW2422 Weather Reports


Display with metric or nautical units.
time (UTC)temp
F
wind
direction
speed
MPH
gust
MPH
rain 1hr
in
rain 24hr
in
rain mn
in
humidity
%
barometer
mb
20260904163016 92 131 0.0 5.0 0.00 0.00 0.00 57 1014.4
20260904161517 91 143 1.0 5.0 0.00 0.00 0.00 59 1014.3
20260904160011 90 261 1.0 8.0 0.00 0.00 0.00 61 1014.5
20260904154509 89 258 1.0 5.0 0.00 0.00 0.00 63 1014.5
20260904143102 85 233 0.0 7.0 0.00 0.00 0.00 76 1014.3
20260904141557 84 216 3.0 8.0 0.00 0.00 0.00 79 1014.3
20260904140053 83 196 3.0 6.0 0.00 0.00 0.00 81 1014.3
20260904134549 81 223 1.0 6.0 0.00 0.00 0.00 84 1014.1
20260904123021 76 219 0.0 4.0 0.00 0.00 0.00 91 1013.6
20260904121520 76 93 0.0 2.0 0.00 0.00 0.00 91 1013.5
20260904120023 76 78 0.0 3.0 0.00 0.00 0.00 91 1013.5
20260904114517 76 172 0.0 5.0 0.00 0.00 0.00 90 1013.3
20260904113017 76 114 0.0 4.0 0.00 0.00 0.00 90 1013.2
20260904111513 76 186 0.0 4.0 0.00 0.00 0.00 89 1013.0
20260904110012 76 248 0.0 5.0 0.00 0.00 0.00 88 1013.1
20260904104520 76 98 1.0 3.0 0.00 0.00 0.00 88 1013.0
20260904103009 76 189 0.0 3.0 0.00 0.00 0.00 87 1012.9
20260904101511 76 72 0.0 2.0 0.00 0.00 0.00 87 1012.8
20260904100007 76 93 0.0 1.0 0.00 0.00 0.00 86 1012.7
20260904094511 76 116 0.0 2.0 0.00 0.00 0.00 85 1012.6
20260904093008 77 181 0.0 0.0 0.00 0.00 0.00 84 1012.6
20260904091504 77 133 0.0 2.0 0.00 0.00 0.00 84 1012.7
20260904090002 77 185 0.0 3.0 0.00 0.00 0.00 83 1012.7
20260904084502 77 104 0.0 3.0 0.00 0.00 0.00 83 1012.7
20260904083101 77 191 0.0 4.0 0.00 0.00 0.00 83 1012.6
20260904081600 77 167 0.0 1.0 0.00 0.00 0.00 82 1012.6
20260904080100 78 212 0.0 1.0 0.00 0.00 0.00 82 1012.6
20260904074557 78 139 0.0 3.0 0.00 0.00 0.00 81 1012.4
20260904073059 78 77 0.0 2.0 0.00 0.00 0.00 81 1012.5
20260904071559 78 165 0.0 3.0 0.00 0.00 0.00 80 1012.5
20260904070053 78 188 0.0 3.0 0.00 0.00 0.00 80 1012.6
20260904064551 79 152 0.0 2.0 0.00 0.00 0.00 79 1012.8
20260904044550 80 110 1.0 7.0 0.00 0.00 0.00 72 1012.7
20260904043046 81 191 0.0 7.0 0.00 0.00 0.00 71 1012.8
20260904041553 81 158 1.0 7.0 0.00 0.00 0.00 71 1012.8
20260904040042 81 146 2.0 7.0 0.00 0.00 0.00 70 1012.8
20260904034541 81 212 1.0 5.0 0.00 0.00 0.00 69 1012.9
20260904033035 82 257 0.0 5.0 0.00 0.00 0.00 67 1012.9
20260904031525 82 174 1.0 4.0 0.00 0.00 0.00 67 1012.9
20260904030025 82 122 1.0 7.0 0.00 0.00 0.00 66 1012.7
20260904024524 82 135 0.0 7.0 0.00 0.00 0.00 67 1012.5
20260904013016 84 186 2.0 10.0 0.00 0.00 0.00 70 1011.7
20260904011512 84 183 2.0 9.0 0.00 0.00 0.00 69 1011.4
20260904010011 85 232 2.0 6.0 0.00 0.00 0.00 67 1011.3
20260904004510 86 136 2.0 7.0 0.00 0.00 0.00 65 1011.3
20260904003010 86 214 1.0 9.0 0.00 0.00 0.00 62 1011.4
20260904001508 87 96 3.0 10.0 0.00 0.00 0.00 60 1011.3
20260904000010 88 142 3.0 11.0 0.00 0.00 0.00 61 1011.1
20260903234506 89 160 2.0 9.0 0.00 0.00 0.00 60 1011.0
20260903233005 89 74 3.0 13.0 0.00 0.00 0.00 59 1011.0
20260903231506 90 132 2.0 9.0 0.00 0.00 0.00 60 1010.9
20260903230005 90 89 3.0 7.0 0.00 0.07 0.00 60 1010.9
20260903224504 91 258 4.0 9.0 0.00 0.07 0.00 58 1010.7
20260903223006 92 92 3.0 13.0 0.00 0.07 0.00 56 1010.8
20260903221504 91 201 1.0 12.0 0.00 0.07 0.00 55 1010.6
20260903220002 92 91 3.0 10.0 0.00 0.07 0.00 53 1010.7
20260903214600 92 143 3.0 8.0 0.00 0.07 0.00 54 1011.0
20260903213058 92 207 3.0 8.0 0.00 0.07 0.00 55 1011.2
20260903211556 92 146 3.0 7.0 0.00 0.07 0.00 56 1011.3
20260903210053 91 149 3.0 9.0 0.00 0.07 0.00 57 1011.4
20260903204550 91 167 2.0 9.0 0.00 0.07 0.00 58 1011.7
20260903203048 90 74 3.0 9.0 0.00 0.07 0.00 59 1011.8
20260903201546 89 239 1.0 9.0 0.00 0.07 0.00 61 1012.0
20260903200044 89 152 2.0 10.0 0.00 0.07 0.00 61 1012.0
20260903194541 88 204 2.0 7.0 0.00 0.07 0.00 63 1011.9
20260903193040 87 212 2.0 8.0 0.00 0.07 0.00 64 1012.1
20260903184531 88 182 2.0 9.0 0.00 0.07 0.00 64 1012.7
20260903183026 86 148 4.0 10.0 0.00 0.07 0.00 67 1012.8
20260903181522 85 264 4.0 12.0 0.00 0.07 0.00 69 1013.0
20260903180043 84 126 4.0 13.0 0.00 0.07 0.00 70 1013.2
20260903174521 84 210 1.0 11.0 0.00 0.07 0.00 71 1013.5
20260903173017 83 207 3.0 9.0 0.00 0.07 0.00 73 1013.6
20260903171516 82 222 2.0 9.0 0.00 0.07 0.00 76 1013.7
20260903170021 82 133 3.0 12.0 0.00 0.07 0.00 77 1013.7
20260903164514 83 243 3.0 15.0 0.00 0.07 0.00 76 1013.6